| time (UTC) | temp F | wind direction | speed MPH | gust MPH | rain 1hr in | rain 24hr in | rain mn in | humidity % | barometer mb |
| 20260504141001 | 49 | 16.0 | 25.0 | 0.00 | 2.07 | 0.16 | 56 | 1003.7 | |
| 20260504140500 | 49 | 16.0 | 25.0 | 0.00 | 2.07 | 0.16 | 56 | 998.3 | |
| 20260504130500 | 49 | 13.0 | 23.0 | 0.00 | 2.07 | 0.16 | 56 | 997.3 | |
| 20260504110500 | 52 | 9.0 | 17.0 | 0.00 | 2.07 | 0.16 | 54 | 995.9 | |
| 20260504100501 | 52 | 11.0 | 21.0 | 0.00 | 2.07 | 0.16 | 48 | 995.6 | |
| 20260504082000 | 57 | 12.0 | 26.0 | 0.00 | 2.07 | 0.16 | 44 | 993.6 | |
| 20260504081500 | 58 | 12.0 | 26.0 | 0.00 | 2.07 | 0.16 | 45 | 999.0 | |
| 20260504081001 | 60 | 12.0 | 26.0 | 0.00 | 2.07 | 0.16 | 45 | 999.0 | |
| 20260504080501 | 60 | 12.0 | 26.0 | 0.00 | 2.07 | 0.16 | 45 | 999.0 | |
| 20260504050500 | 61 | 11.0 | 20.0 | 0.16 | 2.07 | 0.16 | 40 | 997.0 | |
| 20260504050000 | 61 | 11.0 | 20.0 | 0.00 | 1.91 | 0.00 | 40 | 997.0 | |
| 20260504045500 | 61 | 11.0 | 19.0 | 0.00 | 1.91 | 0.00 | 40 | 997.3 | |
| 20260504045000 | 61 | 11.0 | 19.0 | 0.00 | 1.91 | 0.00 | 40 | 997.3 | |
| 20260504044501 | 61 | 11.0 | 18.0 | 0.00 | 1.91 | 0.00 | 40 | 997.3 | |
| 20260504044001 | 61 | 11.0 | 18.0 | 0.00 | 1.91 | 0.00 | 40 | 997.3 | |
| 20260504043500 | 61 | 11.0 | 18.0 | 0.00 | 1.91 | 0.00 | 40 | 998.0 | |
| 20260504042000 | 61 | 11.0 | 18.0 | 0.00 | 1.91 | 0.00 | 40 | 998.0 | |
| 20260504041500 | 61 | 10.0 | 18.0 | 0.00 | 1.91 | 0.00 | 40 | 996.6 | |
| 20260504041000 | 61 | 10.0 | 18.0 | 0.00 | 1.91 | 0.00 | 40 | 996.6 | |
| 20260504040501 | 61 | 9.0 | 17.0 | 0.00 | 1.91 | 0.00 | 40 | 998.7 | |
| 20260504040001 | 61 | 9.0 | 17.0 | 0.00 | 1.91 | 0.00 | 40 | 998.7 | |
| 20260504035500 | 61 | 9.0 | 17.0 | 0.00 | 1.91 | 0.00 | 40 | 998.7 | |
| 20260504035001 | 61 | 9.0 | 17.0 | 0.00 | 1.91 | 0.00 | 40 | 998.7 | |
| 20260504034500 | 61 | 9.0 | 16.0 | 0.00 | 1.91 | 0.00 | 40 | 999.0 | |
| 20260504034000 | 61 | 9.0 | 16.0 | 0.00 | 1.91 | 0.00 | 40 | 999.0 | |
| 20260504033500 | 61 | 9.0 | 16.0 | 0.00 | 1.91 | 0.00 | 40 | 999.0 | |
| 20260504033001 | 62 | 9.0 | 16.0 | 0.00 | 1.91 | 0.00 | 40 | 999.0 | |
| 20260504032500 | 62 | 9.0 | 16.0 | 0.00 | 1.91 | 0.00 | 40 | 999.3 | |
| 20260504032000 | 62 | 9.0 | 16.0 | 0.00 | 1.91 | 0.00 | 40 | 999.3 | |
| 20260504031500 | 62 | 8.0 | 15.0 | 0.00 | 1.91 | 0.00 | 40 | 995.9 | |
| 20260504031000 | 62 | 8.0 | 15.0 | 0.00 | 1.91 | 0.00 | 40 | 995.9 | |
| 20260504030500 | 62 | 8.0 | 15.0 | 0.00 | 1.91 | 0.00 | 40 | 999.7 | |
| 20260504025500 | 62 | 8.0 | 15.0 | 0.00 | 1.91 | 0.00 | 40 | 1000.0 | |
| 20260504025000 | 62 | 8.0 | 15.0 | 0.00 | 1.91 | 0.00 | 40 | 1000.0 | |
| 20260504024501 | 62 | 8.0 | 14.0 | 0.00 | 1.91 | 0.00 | 41 | 1000.0 | |
| 20260504024000 | 62 | 8.0 | 14.0 | 0.00 | 1.91 | 0.00 | 41 | 1000.0 | |
| 20260504023500 | 62 | 8.0 | 15.0 | 0.00 | 1.91 | 0.00 | 41 | 1000.0 | |
| 20260504023001 | 62 | 8.0 | 15.0 | 0.00 | 1.91 | 0.00 | 41 | 1000.0 | |
| 20260504022501 | 62 | 8.0 | 15.0 | 0.00 | 1.91 | 0.00 | 41 | 1000.7 | |
| 20260504021500 | 62 | 8.0 | 15.0 | 0.00 | 1.91 | 0.00 | 41 | 996.3 | |
| 20260504021000 | 62 | 8.0 | 15.0 | 0.00 | 1.91 | 0.00 | 41 | 996.3 | |
| 20260504020501 | 62 | 8.0 | 15.0 | 0.00 | 1.91 | 0.00 | 42 | 1001.0 | |
| 20260504020000 | 62 | 8.0 | 15.0 | 0.00 | 1.91 | 0.00 | 42 | 1001.0 | |
| 20260504015501 | 62 | 8.0 | 15.0 | 0.00 | 1.91 | 0.00 | 42 | 1001.4 | |
| 20260504015000 | 62 | 8.0 | 15.0 | 0.00 | 1.91 | 0.00 | 42 | 1001.4 | |
| 20260504014500 | 62 | 10.0 | 17.0 | 0.00 | 1.91 | 0.00 | 42 | 1001.7 | |
| 20260504014000 | 62 | 10.0 | 17.0 | 0.00 | 1.91 | 0.00 | 42 | 1001.7 | |
| 20260504013500 | 63 | 10.0 | 17.0 | 0.00 | 1.91 | 0.00 | 42 | 1001.7 | |
| 20260504013000 | 63 | 10.0 | 17.0 | 0.00 | 1.91 | 0.00 | 42 | 1001.7 | |
| 20260504012000 | 63 | 10.0 | 18.0 | 0.00 | 1.91 | 0.00 | 43 | 1001.7 | |
| 20260504011500 | 63 | 11.0 | 18.0 | 0.00 | 1.91 | 0.00 | 42 | 995.6 | |
| 20260504011000 | 63 | 11.0 | 18.0 | 0.00 | 1.91 | 0.00 | 42 | 995.6 | |
| 20260504010500 | 63 | 11.0 | 18.0 | 0.00 | 1.91 | 0.00 | 42 | 995.6 | |
| 20260504010000 | 64 | 11.0 | 18.0 | 0.00 | 1.91 | 0.00 | 42 | 995.6 | |
| 20260504005501 | 64 | 11.0 | 18.0 | 0.00 | 1.91 | 0.00 | 42 | 1002.0 | |
| 20260504005000 | 64 | 11.0 | 18.0 | 0.00 | 1.91 | 0.00 | 42 | 1002.0 | |
| 20260504003500 | 64 | 11.0 | 19.0 | 0.00 | 1.91 | 0.00 | 41 | 1002.7 | |
| 20260504003000 | 65 | 11.0 | 19.0 | 0.00 | 1.91 | 0.00 | 41 | 1002.7 | |
| 20260504002501 | 65 | 11.0 | 19.0 | 0.00 | 1.91 | 0.00 | 41 | 1002.7 | |
| 20260504002000 | 65 | 11.0 | 19.0 | 0.00 | 1.91 | 0.00 | 40 | 1002.7 | |
| 20260504001500 | 65 | 9.0 | 16.0 | 0.00 | 1.91 | 0.00 | 40 | 1002.7 | |
| 20260504001000 | 65 | 9.0 | 16.0 | 0.00 | 1.91 | 0.00 | 40 | 1002.7 | |
| 20260504000500 | 65 | 9.0 | 16.0 | 0.00 | 1.91 | 0.00 | 41 | 1003.0 | |
| 20260504000000 | 66 | 9.0 | 16.0 | 0.00 | 1.91 | 0.00 | 40 | 1003.0 | |
| 20260503235500 | 66 | 9.0 | 16.0 | 0.00 | 1.91 | 0.00 | 38 | 1003.0 | |
| 20260503235000 | 66 | 9.0 | 16.0 | 0.00 | 1.91 | 0.00 | 39 | 1003.0 | |
| 20260503234000 | 66 | 11.0 | 18.0 | 0.00 | 1.91 | 0.00 | 38 | 1003.0 | |
| 20260503233500 | 67 | 12.0 | 21.0 | 0.00 | 1.91 | 0.00 | 37 | 1003.7 | |
| 20260503233001 | 67 | 12.0 | 21.0 | 0.00 | 1.91 | 0.00 | 36 | 1003.7 | |
| 20260503232500 | 67 | 11.0 | 18.0 | 0.00 | 1.91 | 0.00 | 38 | 1003.7 | |
| 20260503232000 | 67 | 11.0 | 18.0 | 0.00 | 1.91 | 0.00 | 38 | 1003.7 | |
| 20260503231500 | 67 | 11.0 | 18.0 | 0.00 | 1.91 | 0.00 | 37 | 998.3 | |
| 20260503231000 | 67 | 11.0 | 18.0 | 0.00 | 1.91 | 0.00 | 38 | 998.3 | |
| 20260503230000 | 68 | 11.0 | 18.0 | 0.00 | 1.91 | 0.00 | 37 | 1003.7 | |
| 20260503225500 | 68 | 10.0 | 17.0 | 0.00 | 1.91 | 0.00 | 35 | 1004.1 | |
| 20260503225001 | 68 | 10.0 | 17.0 | 0.00 | 1.91 | 0.00 | 36 | 1004.1 | |
| 20260503224500 | 68 | 10.0 | 17.0 | 0.00 | 1.91 | 0.00 | 35 | 1004.1 | |
| 20260503224000 | 68 | 10.0 | 17.0 | 0.00 | 1.91 | 0.00 | 35 | 1004.1 | |
| 20260503223500 | 68 | 11.0 | 17.0 | 0.00 | 1.91 | 0.00 | 35 | 1004.1 | |
| 20260503223000 | 68 | 11.0 | 17.0 | 0.00 | 1.91 | 0.00 | 34 | 1004.1 | |
| 20260503222500 | 68 | 9.0 | 15.0 | 0.00 | 1.91 | 0.00 | 34 | 1004.4 | |
| 20260503221001 | 69 | 9.0 | 15.0 | 0.00 | 1.91 | 0.00 | 34 | 999.7 | |
| 20260503220501 | 69 | 9.0 | 15.0 | 0.00 | 1.91 | 0.00 | 34 | 1004.7 | |
| 20260503220000 | 69 | 9.0 | 15.0 | 0.00 | 1.91 | 0.00 | 34 | 1004.7 | |
| 20260503215501 | 70 | 11.0 | 17.0 | 0.00 | 1.91 | 0.00 | 34 | 1004.7 | |
| 20260503215000 | 69 | 11.0 | 17.0 | 0.00 | 1.91 | 0.00 | 34 | 1004.7 | |
| 20260503214500 | 69 | 9.0 | 15.0 | 0.00 | 1.91 | 0.00 | 35 | 1004.7 | |
| 20260503214000 | 69 | 9.0 | 15.0 | 0.00 | 1.91 | 0.00 | 35 | 1004.7 | |
| 20260503213500 | 69 | 10.0 | 16.0 | 0.00 | 1.91 | 0.00 | 36 | 1000.7 | |
| 20260503213000 | 69 | 10.0 | 16.0 | 0.00 | 1.91 | 0.00 | 35 | 1000.7 | |
| 20260503212500 | 69 | 9.0 | 15.0 | 0.00 | 1.91 | 0.00 | 34 | 1005.4 | |
| 20260503212000 | 70 | 9.0 | 15.0 | 0.00 | 1.91 | 0.00 | 34 | 1005.4 | |
| 20260503211500 | 69 | 10.0 | 16.0 | 0.00 | 1.91 | 0.00 | 35 | 1000.7 | |
| 20260503211000 | 69 | 10.0 | 16.0 | 0.00 | 1.91 | 0.00 | 35 | 1000.7 | |
| 20260503210500 | 69 | 10.0 | 16.0 | 0.00 | 1.91 | 0.00 | 34 | 1005.8 | |
| 20260503210000 | 69 | 10.0 | 16.0 | 0.00 | 1.91 | 0.00 | 34 | 1005.8 | |
| 20260503204500 | 69 | 10.0 | 16.0 | 0.00 | 1.91 | 0.00 | 35 | 1006.1 | |
| 20260503204000 | 69 | 10.0 | 16.0 | 0.00 | 1.91 | 0.00 | 34 | 1006.1 | |
| 20260503203000 | 68 | 10.0 | 16.0 | 0.00 | 1.91 | 0.00 | 37 | 1001.4 | |
| 20260503202500 | 68 | 9.0 | 16.0 | 0.00 | 1.91 | 0.00 | 36 | 1006.4 | |
| 20260503202000 | 68 | 9.0 | 16.0 | 0.00 | 1.91 | 0.00 | 34 | 1006.4 | |
| 20260503201000 | 68 | 9.0 | 15.0 | 0.00 | 1.91 | 0.00 | 35 | 1001.4 | |
| 20260503200500 | 68 | 9.0 | 15.0 | 0.00 | 1.91 | 0.00 | 35 | 1006.8 | |
| 20260503200000 | 68 | 9.0 | 15.0 | 0.00 | 1.91 | 0.00 | 34 | 1006.8 | |
| 20260503195500 | 68 | 9.0 | 15.0 | 0.00 | 1.91 | 0.00 | 34 | 1006.8 | |
| 20260503195001 | 68 | 9.0 | 15.0 | 0.00 | 1.91 | 0.00 | 35 | 1006.8 | |
| 20260503194501 | 68 | 9.0 | 14.0 | 0.00 | 1.91 | 0.00 | 35 | 1002.0 | |
| 20260503194000 | 67 | 9.0 | 14.0 | 0.00 | 1.91 | 0.00 | 34 | 1002.0 | |
| 20260503193500 | 67 | 9.0 | 14.0 | 0.00 | 1.91 | 0.00 | 35 | 1007.1 | |
| 20260503193000 | 67 | 9.0 | 14.0 | 0.00 | 1.91 | 0.00 | 34 | 1007.1 | |
| 20260503192500 | 67 | 9.0 | 14.0 | 0.00 | 1.91 | 0.00 | 34 | 1007.1 | |
| 20260503192000 | 67 | 9.0 | 14.0 | 0.00 | 1.91 | 0.00 | 34 | 1007.1 | |
| 20260503191500 | 67 | 10.0 | 15.0 | 0.00 | 1.91 | 0.00 | 34 | 1007.1 | |
| 20260503191000 | 67 | 10.0 | 15.0 | 0.00 | 1.91 | 0.00 | 34 | 1007.1 | |
| 20260503190500 | 67 | 10.0 | 15.0 | 0.00 | 1.91 | 0.00 | 34 | 1007.5 | |
| 20260503190000 | 67 | 10.0 | 15.0 | 0.00 | 1.91 | 0.00 | 35 | 1007.5 | |
| 20260503185501 | 67 | 9.0 | 14.0 | 0.00 | 1.91 | 0.00 | 35 | 1007.8 | |
| 20260503185001 | 67 | 9.0 | 14.0 | 0.00 | 1.91 | 0.00 | 35 | 1007.8 | |
| 20260503184500 | 66 | 10.0 | 15.0 | 0.00 | 1.91 | 0.00 | 35 | 1007.8 | |
| 20260503184001 | 66 | 10.0 | 15.0 | 0.00 | 1.91 | 0.00 | 35 | 1007.8 | |
| 20260503183501 | 66 | 9.0 | 15.0 | 0.00 | 1.91 | 0.00 | 35 | 1008.1 | |
| 20260503183000 | 66 | 9.0 | 15.0 | 0.00 | 1.91 | 0.00 | 35 | 1008.1 | |
| 20260503182501 | 66 | 9.0 | 15.0 | 0.00 | 1.91 | 0.00 | 34 | 1008.1 | |
| 20260503182000 | 66 | 9.0 | 15.0 | 0.00 | 1.91 | 0.00 | 34 | 1008.1 | |
| 20260503181500 | 66 | 9.0 | 14.0 | 0.00 | 1.91 | 0.00 | 33 | 1003.0 | |
| 20260503181000 | 66 | 9.0 | 14.0 | 0.00 | 1.91 | 0.00 | 32 | 1003.0 | |
| 20260503180000 | 66 | 9.0 | 14.0 | 0.00 | 1.91 | 0.00 | 33 | 1008.5 | |
| 20260503175500 | 65 | 9.0 | 14.0 | 0.00 | 1.91 | 0.00 | 32 | 1008.5 | |
| 20260503175000 | 65 | 9.0 | 14.0 | 0.00 | 1.91 | 0.00 | 32 | 1008.5 | |
| 20260503174500 | 65 | 9.0 | 14.0 | 0.00 | 1.91 | 0.00 | 33 | 1008.5 | |
| 20260503174000 | 65 | 9.0 | 14.0 | 0.00 | 1.91 | 0.00 | 33 | 1008.5 | |
| 20260503173500 | 65 | 11.0 | 15.0 | 0.00 | 1.91 | 0.00 | 33 | 1008.5 | |
| 20260503173001 | 65 | 11.0 | 15.0 | 0.00 | 1.91 | 0.00 | 33 | 1008.5 | |
| 20260503171500 | 64 | 9.0 | 14.0 | 0.00 | 1.91 | 0.00 | 32 | 1004.1 | |
| 20260503171000 | 64 | 9.0 | 14.0 | 0.00 | 1.91 | 0.00 | 32 | 1004.1 | |
| 20260503170500 | 64 | 9.0 | 14.0 | 0.00 | 1.91 | 0.00 | 32 | 1008.8 | |
| 20260503151000 | 59 | 8.0 | 14.0 | 0.00 | 1.91 | 0.00 | 40 | 1006.4 | |
| 20260503150500 | 59 | 8.0 | 14.0 | 0.00 | 1.91 | 0.00 | 40 | 1008.8 |